IRIDIUM 33 DEB, 35488

Orbit data source: Space-Track

IRIDIUM 33 DEB, 35488 is space debris in LEO originally from a launch on Sun, 14 Sep 1997 UTC launched from the Tyuratam Missile And Space Complex (TTMTR). The debris from Iridium 33, an American commercial communications satellite, has been tracked extensively since its accidental collision with the defunct Russian satellite Cosmos 2251 in 2009. This event, occurring at high speed in low Earth orbit (LEO), generated thousands of pieces of space debris, significantly increasing the risk of further collisions. The Iridium 33 debris cloud has impacted space traffic management and orbital debris mitigation strategies, making it a subject of ongoing study in space situational awareness.

Loading next visibility...
Identifier
35488, 1997-051QJ
Orbit
LEO
Country
Flag of USUS
Related business
Manufacturer
Unknown
Mission
Spacecraft
Bus & Motor
Unknown
Mass
Unknown
Launch date (UTC)
1997-09-14 (28 years ago)
Launch vehicle
Unknown
Launch site
Tyuratam Missile And Space Complex (TTMTR)
Object type
Payload
Rocket body
Debris
Shape & HBR
Unknown shape, 0.1 m
Radar Cross Section
Small (<0.1 m²)

Expand to show TLE details & history
Last TLE update: 19 hours ago

TLE from 19 hours ago
0 IRIDIUM 33 DEB
1 35488U 97051QJ  25302.80323172  .00013566  00000-0  17033-2 0  9995
2 35488  86.3255 321.1188 0027672 187.4005 172.6812 14.81782392876151
Epoch: 2025-10-29T19:16Z
TLE epoch observation values (Epoch: 2025-10-29T19:16:39.220Z)
Latitude
-0.00012°
Longitude
-6.41575°
Altitude
646.044 km
Speed
7.524 km/s
True Right ascension
21h 24m 28s
True Declination
0° 00' 00"
Sunlit
Object was in daylight at epoch
Visualization orbit readout
Latitude
Unknown
Longitude
Unknown
Altitude
Unknown
Speed
Unknown
Apparent Right ascension
Unknown
Apparent Declination
Unknown
Sunlit
N/A
Visualization observer readout
Local Sidereal Time
09:48:47
Azimuth
Unknown
Elevation
Unknown
Doppler factor
Unknown
Orbital elements
Apogee altitude
639.97 km
Perigee altitude
601.236 km
Semi-major axis
6,998.74 km
Eccentricity
0.00277
Inclination
86.3255°
RAAN
321.1188°
Arg. of periapsis
187.4005°
True anomaly
172.72146°
Mean anomaly
172.6812°
Eccentric anomaly
172.70134°
Mean motion
3.70692 °/min
Orbital period
97.12 mins
BSTAR
0.0017033
Loading maneuver chart data...
Computing Atmospheric mass density...

Documentation

Showing up to 5 results
|